sat.trackr.live / text

‹ back to catalog

STARLINK-2507

NORAD 48316 · 2021-036AS

PAYLOAD ACTIVE UNKNOWN

§ Identity

Operator
Country
US
Launch date
2021-04-29
Launch site
AFETR
Launch vehicle
Mass (kg)
RCS (m²)

Purposes: comms

External: N2YO · Heavens-Above · Gunter

§ Orbital elements

Epoch: 2026-09-09T12:33:41.469696Z

Period
94.01 min
Inclination
53.1597°
Eccentricity
0.0001233
Mean motion
15.31714644 rev/d
Perigee alt
469.9 km
Apogee alt
471.5 km
Semi-major
6,848.8 km
B*
1.0342e-4
RAAN
323.4114°
Arg perigee
79.8009°
Mean anomaly
280.3131°
Rev number
29,622

§ Raw data

STARLINK-25071 48316U 21036AS  26252.52339664  .00002847  00000+0  10342-3 0  99922 48316  53.1597 323.4114 0001233  79.8009 280.3131 15.31714644296229

JSON: /api/v1/satellites/48316 · /tle

For live sub-satellite position, see the globe view (requires WebGL).

§ Visibility from observer

Set your observer location to see the next 7 days of passes ≥ 10°. The values pass through the URL so the page stays shareable.

No JS? Fill the form by hand. The geolocation button needs JavaScript.